Location: Esp�s Alto
(42.4476°N, 0.5876°E)
Time: 17:30:35
(UTC+00:00)

RESURS DK-1 - Pass Details

Date: 22 October 2019
Orbit: 557 x 561 km, 69.9° (Epoch: 22 November)

Event Time Altitude Azimuth Distance (km) Brightness Sun altitude
Exits shadow 05:20:12 17° 268° (W) 1,471 3.8 -11.4°
Maximum altitude 05:22:08 23° 306° (NW) 1,226 3.6 -11.0°
Drops below altitude 10° 05:25:26 10° 359° (N) 1,851 4.9 -10.4°
Sets 05:28:02 0° 15° (NNE) 2,750 6.0 -10.0°
